KE4ODN Weather Reports


Display with metric or nautical units.
time (UTC)temp
F
wind
direction
speed
MPH
gust
MPH
rain 1hr
in
rain 24hr
in
rain mn
in
humidity
%
barometer
mb
20260504185603 77 215 2.0 4.0 0.00 0.00 0.00 44 1014.6
20260504185203 78 181 2.0 5.0 0.00 0.00 0.00 42 1014.6
20260504184803 78 174 2.0 5.0 0.00 0.00 0.00 44 1014.8
20260504184403 78 205 2.0 5.0 0.00 0.00 0.00 38 1014.8
20260504184003 78 311 2.0 5.0 0.00 0.00 0.00 44 1014.9
20260504183603 78 303 1.0 5.0 0.00 0.00 0.00 45 1015.0
20260504183203 78 186 1.0 3.0 0.00 0.00 0.00 44 1015.0
20260504182803 77 251 1.0 6.0 0.00 0.00 0.00 44 1015.0
20260504182403 77 236 2.0 6.0 0.00 0.00 0.00 43 1015.1
20260504182003 77 189 2.0 6.0 0.00 0.00 0.00 45 1015.2
20260504181603 77 186 1.0 4.0 0.00 0.00 0.00 43 1015.2
20260504181203 78 267 1.0 4.0 0.00 0.00 0.00 42 1015.2
20260504180803 77 318 1.0 3.0 0.00 0.00 0.00 47 1015.2
20260504180403 77 318 1.0 3.0 0.00 0.00 0.00 50 1015.3
20260504180003 78 304 1.0 3.0 0.00 0.00 0.00 49 1015.3
20260504175624 77 302 2.0 4.0 0.00 0.00 0.00 42 1015.4
20260504175203 78 292 1.0 4.0 0.00 0.00 0.00 43 1015.5
20260504174803 77 289 1.0 4.0 0.00 0.00 0.00 48 1015.6
20260504174403 76 304 1.0 3.0 0.00 0.00 0.00 45 1015.6
20260504174003 76 81 1.0 3.0 0.00 0.00 0.00 45 1015.7
20260504173603 76 88 1.0 4.0 0.00 0.00 0.00 48 1015.7
20260504173204 76 261 1.0 4.0 0.00 0.00 0.00 48 1015.7
20260504172803 76 256 2.0 4.0 0.00 0.00 0.00 44 1015.7
20260504172424 76 257 2.0 4.0 0.00 0.00 0.00 47 1015.8
20260504172003 76 187 1.0 4.0 0.00 0.00 0.00 51 1015.9
20260504171603 77 169 1.0 4.0 0.00 0.00 0.00 44 1015.9
20260504171203 76 174 1.0 4.0 0.00 0.00 0.00 44 1016.0
20260504170824 76 150 1.0 3.0 0.00 0.00 0.00 47 1016.1
20260504170403 75 136 1.0 8.0 0.00 0.00 0.00 50 1016.1
20260504160403 74 288 2.0 6.0 0.00 0.00 0.00 53 1016.9
20260504150803 69 275 1.0 3.0 0.00 0.00 0.00 61 1017.1
20260504150424 68 243 1.0 3.0 0.00 0.00 0.00 65 1017.1
20260504141203 61 0 0.0 0.0 0.00 0.00 0.00 78 1017.3
20260504140803 60 0 0.0 0.0 0.00 0.00 0.00 74 1017.4
20260504140403 60 0 0.0 0.0 0.00 0.00 0.00 77 1017.5
20260504130803 52 0 0.0 0.0 0.00 0.00 0.00 92 1017.7
20260504130403 51 0 0.0 0.0 0.00 0.00 0.00 92 1017.7
20260504110424 44 0 0.0 0.0 0.00 0.00 0.00 93 1017.1
20260504100403 45 0 0.0 0.0 0.00 0.00 0.00 93 1017.0
20260504081603 46 0 0.0 0.0 0.00 0.00 0.00 93 1016.8
20260504081203 46 0 0.0 0.0 0.00 0.00 0.00 93 1016.8
20260504080803 46 0 0.0 0.0 0.00 0.00 0.00 93 1016.9
20260504080403 46 0 0.0 0.0 0.00 0.00 0.00 93 1016.9
20260504070403 47 0 0.0 0.0 0.00 0.00 0.00 93 1017.2
20260504050424 49 0 0.0 0.0 0.00 0.00 0.00 92 1017.9
20260504050003 50 0 0.0 0.0 0.00 0.00 0.00 92 1017.9
20260504045603 50 0 0.0 0.0 0.00 0.00 0.00 92 1018.0
20260504045203 50 0 0.0 0.0 0.00 0.00 0.00 92 1018.0
20260504044803 50 0 0.0 0.0 0.00 0.00 0.00 92 1018.0
20260504044403 50 0 0.0 0.0 0.00 0.00 0.00 92 1018.0
20260504044003 50 0 0.0 0.0 0.00 0.00 0.00 92 1018.0
20260504043603 50 0 0.0 0.0 0.00 0.00 0.00 92 1018.1
20260504043203 50 0 0.0 0.0 0.00 0.00 0.00 91 1018.2
20260504042803 50 0 0.0 0.0 0.00 0.00 0.00 92 1018.2
20260504042403 50 0 0.0 0.0 0.00 0.00 0.00 91 1018.2
20260504042003 50 0 0.0 0.0 0.00 0.00 0.00 92 1018.2
20260504041603 50 0 0.0 0.0 0.00 0.00 0.00 91 1018.1
20260504041203 50 0 0.0 0.0 0.00 0.00 0.00 91 1018.1
20260504040803 51 0 0.0 0.0 0.00 0.00 0.00 91 1018.1
20260504040403 51 0 0.0 0.0 0.00 0.00 0.00 91 1018.1
20260504040003 51 0 0.0 0.0 0.00 0.00 0.00 91 1018.1
20260504035624 51 0 0.0 0.0 0.00 0.00 0.00 91 1018.1
20260504035224 51 0 0.0 0.0 0.00 0.00 0.00 91 1018.3
20260504034803 51 0 0.0 0.0 0.00 0.00 0.00 91 1018.3
20260504034403 51 0 0.0 0.0 0.00 0.00 0.00 91 1018.4
20260504034003 51 0 0.0 0.0 0.00 0.00 0.00 91 1018.4
20260504033603 52 0 0.0 0.0 0.00 0.00 0.00 91 1018.4
20260504033203 52 0 0.0 0.0 0.00 0.00 0.00 91 1018.4
20260504032803 52 0 0.0 0.0 0.00 0.00 0.00 91 1018.5
20260504032403 52 0 0.0 0.0 0.00 0.00 0.00 91 1018.6
20260504032003 52 0 0.0 0.0 0.00 0.00 0.00 91 1018.5
20260504031624 52 0 0.0 0.0 0.00 0.00 0.00 91 1018.5
20260504031203 52 0 0.0 0.0 0.00 0.00 0.00 91 1018.4
20260504030803 52 0 0.0 0.0 0.00 0.00 0.00 91 1018.5
20260504030403 52 0 0.0 0.0 0.00 0.00 0.00 91 1018.4
20260504030003 52 0 0.0 0.0 0.00 0.00 0.00 90 1018.4
20260504025603 52 0 0.0 0.0 0.00 0.00 0.00 91 1018.3
20260504025203 52 0 0.0 0.0 0.00 0.00 0.00 90 1018.3
20260504024803 52 0 0.0 0.0 0.00 0.00 0.00 89 1018.3
20260504024403 53 0 0.0 0.0 0.00 0.00 0.00 89 1018.2
20260504024003 53 0 0.0 0.0 0.00 0.00 0.00 89 1018.3
20260504023624 53 0 0.0 0.0 0.00 0.00 0.00 89 1018.3
20260504023203 53 0 0.0 0.0 0.00 0.00 0.00 88 1018.1
20260504022803 54 0 0.0 0.0 0.00 0.00 0.00 88 1018.1
20260504022403 54 0 0.0 0.0 0.00 0.00 0.00 89 1018.1
20260504022003 54 0 0.0 0.0 0.00 0.00 0.00 88 1018.0
20260504021603 54 0 0.0 0.0 0.00 0.00 0.00 87 1017.9
20260504021203 54 0 0.0 0.0 0.00 0.00 0.00 87 1017.9
20260504020803 54 0 0.0 0.0 0.00 0.00 0.00 86 1017.9
20260504020403 55 0 0.0 0.0 0.00 0.00 0.00 86 1017.9
20260504020003 55 0 0.0 0.0 0.00 0.00 0.00 86 1017.8
20260504015603 55 0 0.0 0.0 0.00 0.00 0.00 85 1017.9
20260504015203 55 0 0.0 0.0 0.00 0.00 0.00 84 1017.8
20260504014803 55 0 0.0 0.0 0.00 0.00 0.00 84 1017.9
20260504014403 56 0 0.0 0.0 0.00 0.00 0.00 84 1017.9
20260504014003 56 0 0.0 0.0 0.00 0.00 0.00 83 1017.8
20260504013603 56 0 0.0 0.0 0.00 0.00 0.00 83 1017.7
20260504013203 56 0 0.0 0.0 0.00 0.00 0.00 82 1017.6
20260504012803 56 0 0.0 0.0 0.00 0.00 0.00 81 1017.5
20260504012403 57 0 0.0 0.0 0.00 0.00 0.00 81 1017.4
20260504012003 57 0 0.0 0.0 0.00 0.00 0.00 80 1017.5
20260504011603 57 0 0.0 0.0 0.00 0.00 0.00 80 1017.5
20260504011203 58 0 0.0 0.0 0.00 0.00 0.00 78 1017.5
20260504010803 58 0 0.0 0.0 0.00 0.00 0.00 77 1017.4
20260504010403 58 0 0.0 0.0 0.00 0.00 0.00 77 1017.4
20260504010003 59 0 0.0 0.0 0.00 0.00 0.00 76 1017.4
20260504005603 59 0 0.0 0.0 0.00 0.00 0.00 75 1017.3
20260504005203 59 0 0.0 0.0 0.00 0.00 0.00 74 1017.4
20260504004804 60 0 0.0 0.0 0.00 0.00 0.00 74 1017.3
20260504004404 60 0 0.0 0.0 0.00 0.00 0.00 72 1017.3
20260504004004 60 0 0.0 0.0 0.00 0.00 0.00 71 1017.3
20260504003625 61 0 0.0 0.0 0.00 0.00 0.00 70 1017.2
20260504003225 61 0 0.0 0.0 0.00 0.00 0.00 69 1017.2
20260504002804 62 0 0.0 0.0 0.00 0.00 0.00 68 1017.2
20260504002404 62 0 0.0 0.0 0.00 0.00 0.00 67 1017.1
20260504002004 62 0 0.0 0.0 0.00 0.00 0.00 66 1017.1
20260504001604 63 0 0.0 0.0 0.00 0.00 0.00 65 1017.1
20260504001204 63 0 0.0 0.0 0.00 0.00 0.00 65 1017.1
20260504000825 64 0 0.0 0.0 0.00 0.00 0.00 64 1017.1
20260504000404 64 0 0.0 0.0 0.00 0.00 0.00 60 1017.0
20260504000004 65 0 0.0 0.0 0.00 0.00 0.00 59 1017.0
20260503235625 65 0 0.0 0.0 0.00 0.00 0.00 56 1017.1
20260503235204 65 0 0.0 0.0 0.00 0.00 0.00 57 1017.0
20260503234804 66 0 0.0 0.0 0.00 0.00 0.00 54 1016.9
20260503234404 66 0 0.0 0.0 0.00 0.00 0.00 51 1017.0
20260503234025 66 0 0.0 1.0 0.00 0.00 0.00 50 1016.9
20260503233604 67 0 0.0 1.0 0.00 0.00 0.00 52 1016.9
20260503233204 67 0 0.0 1.0 0.00 0.00 0.00 50 1016.9
20260503232804 67 0 0.0 1.0 0.00 0.00 0.00 48 1016.9
20260503232425 67 0 0.0 1.0 0.00 0.00 0.00 48 1016.9
20260503232004 68 272 0.0 3.0 0.00 0.00 0.00 47 1016.9
20260503231625 68 273 0.0 3.0 0.00 0.00 0.00 47 1016.9
20260503231204 68 324 1.0 3.0 0.00 0.00 0.00 48 1017.1
20260503230804 68 333 1.0 4.0 0.00 0.00 0.00 45 1017.1
20260503230404 69 344 0.0 4.0 0.00 0.00 0.00 48 1017.1
20260503230004 69 342 0.0 4.0 0.00 0.00 0.00 49 1017.1
20260503225604 68 342 1.0 4.0 0.00 0.00 0.00 44 1017.1
20260503225204 69 341 1.0 4.0 0.00 0.00 0.00 46 1017.1
20260503224804 69 338 1.0 4.0 0.00 0.00 0.00 42 1017.1
20260503224404 69 321 1.0 4.0 0.00 0.00 0.00 41 1017.0
20260503224004 69 283 1.0 4.0 0.00 0.00 0.00 40 1017.1
20260503223604 69 263 1.0 4.0 0.00 0.00 0.00 40 1017.1
20260503223204 69 220 0.0 2.0 0.00 0.00 0.00 41 1017.1
20260503222804 69 221 1.0 5.0 0.00 0.00 0.00 47 1017.1
20260503222404 69 279 1.0 5.0 0.00 0.00 0.00 41 1017.2
20260503222004 70 325 1.0 5.0 0.00 0.00 0.00 46 1017.2
20260503221604 70 344 1.0 4.0 0.00 0.00 0.00 45 1017.3
20260503221204 70 343 1.0 4.0 0.00 0.00 0.00 43 1017.3
20260503220804 70 342 1.0 4.0 0.00 0.00 0.00 39 1017.3
20260503220425 70 334 1.0 4.0 0.00 0.00 0.00 43 1017.4
20260503220025 70 300 1.0 4.0 0.00 0.00 0.00 39 1017.3
20260503215604 70 300 1.0 9.0 0.00 0.00 0.00 41 1017.4
20260503215204 70 315 1.0 9.0 0.00 0.00 0.00 38 1017.4
20260503214804 70 352 1.0 9.0 0.00 0.00 0.00 41 1017.5
20260503214404 70 355 2.0 9.0 0.00 0.00 0.00 41 1017.5
20260503214004 71 330 2.0 9.0 0.00 0.00 0.00 39 1017.5
20260503213604 70 269 1.0 6.0 0.00 0.00 0.00 43 1017.6
20260503213225 70 304 1.0 4.0 0.00 0.00 0.00 37 1017.6
20260503212804 71 348 2.0 4.0 0.00 0.00 0.00 37 1017.7
20260503212404 71 4 2.0 4.0 0.00 0.00 0.00 37 1017.7
20260503212004 72 358 1.0 4.0 0.00 0.00 0.00 39 1017.7
20260503211604 71 335 1.0 5.0 0.00 0.00 0.00 38 1017.8
20260503211204 71 341 1.0 5.0 0.00 0.00 0.00 40 1017.8
20260503210804 71 341 2.0 6.0 0.00 0.00 0.00 41 1017.8
20260503210425 71 3 2.0 6.0 0.00 0.00 0.00 41 1017.9
20260503210005 71 11 2.0 6.0 0.00 0.00 0.00 39 1017.9
20260503205604 71 28 1.0 4.0 0.00 0.00 0.00 39 1017.9
20260503205225 71 21 1.0 4.0 0.00 0.00 0.00 41 1018.0
20260503204804 71 16 2.0 4.0 0.00 0.00 0.00 38 1018.1
20260503204404 72 323 2.0 9.0 0.00 0.00 0.00 37 1018.1
20260503204004 71 297 2.0 9.0 0.00 0.00 0.00 40 1018.1
20260503203604 71 284 2.0 9.0 0.00 0.00 0.00 43 1018.3
20260503203204 71 284 2.0 5.0 0.00 0.00 0.00 41 1018.3
20260503202804 71 309 2.0 5.0 0.00 0.00 0.00 40 1018.5
20260503202404 71 348 2.0 4.0 0.00 0.00 0.00 41 1018.5
20260503202025 71 343 2.0 4.0 0.00 0.00 0.00 39 1018.6
20260503201604 71 321 2.0 4.0 0.00 0.00 0.00 40 1018.7
20260503201204 71 335 2.0 4.0 0.00 0.00 0.00 41 1018.7
20260503200804 71 348 2.0 4.0 0.00 0.00 0.00 45 1018.8
20260503200404 72 350 1.0 4.0 0.00 0.00 0.00 38 1018.9
20260503200004 72 342 1.0 4.0 0.00 0.00 0.00 42 1018.9
20260503195604 71 330 1.0 4.0 0.00 0.00 0.00 44 1018.9
20260503195225 71 18 1.0 4.0 0.00 0.00 0.00 40 1019.0
20260503194804 71 41 2.0 4.0 0.00 0.00 0.00 38 1019.2
20260503194404 71 74 1.0 4.0 0.00 0.00 0.00 43 1019.2
20260503194004 70 59 1.0 3.0 0.00 0.00 0.00 42 1019.3
20260503193604 70 7 2.0 5.0 0.00 0.00 0.00 40 1019.5
20260503193204 71 336 2.0 6.0 0.00 0.00 0.00 37 1019.5
20260503192804 71 321 2.0 8.0 0.00 0.00 0.00 39 1019.6
20260503192404 70 333 2.0 8.0 0.00 0.00 0.00 40 1019.6
20260503192004 70 324 2.0 8.0 0.00 0.00 0.00 41 1019.7
20260503191604 70 285 2.0 4.0 0.00 0.00 0.00 41 1019.7
20260503191204 70 318 2.0 4.0 0.00 0.00 0.00 39 1019.7
20260503190804 71 14 2.0 4.0 0.00 0.00 0.00 40 1019.8
20260503190404 70 40 1.0 8.0 0.00 0.00 0.00 42 1019.8
20260503190004 70 22 2.0 8.0 0.00 0.00 0.00 40 1020.0